AirNav   Everest Fuels
 
 291 users online  

9AK5 Sky Harbor Airport
Anchorage, Alaska, USA

GOING TO ANCHORAGE?


FAA INFORMATION EFFECTIVE 18 JUNE 2020

Location

FAA Identifier: 9AK5
Lat/Long: 61-06-59.3300N 149-49-07.5700W
61-06.988833N 149-49.126167W
61.1164806,-149.8187694
(estimated)
Elevation: 340 ft. / 104 m (estimated)
Variation: 25E (1985)
From city: 7 miles SE of ANCHORAGE, AK
Time zone: UTC -8 (UTC -9 during Standard Time)
Zip code: 99516

Airport Operations

Airport use: Private use. Permission required prior to landing
Activation date: 06/1962
Control tower: no
ARTCC: ANCHORAGE CENTER
FSS: KENAI FLIGHT SERVICE STATION [907-283-7211]
Attendance: UNATNDD
Wind indicator: yes
Segmented circle: no

Airport Communications

CTAF: 122.9
WX ASOS at MRI (6 nm N): 124.25 (907-271-5277)
WX ASOS at LHD (6 nm NW): PHONE 907-245-5432
WX ASOS at ANC (6 nm NW): PHONE 907-271-5278
WX ASOS at FRN (10 nm NE): 134.25

Nearby radio navigation aids

VOR radial/distance  VOR name  Freq  Var
TEDr109/5.1ANCHORAGE VOR/DME113.1518E
BGQr152/27.5BIG LAKE VORTAC112.5019E

 
NDB name  Hdg/Dist  Freq  Var  ID
CAMPBELL LAKE100/7.433816ECMQ -.-. -- --.-

Airport Services

Airframe service: NONE
Powerplant service: NONE
Bottled oxygen: NONE
Bulk oxygen: NONE

Runway Information

Runway 16/34

Dimensions: 1800 x 70 ft. / 549 x 21 m
Surface: gravel
Operational restrictions: LAND RWY 34 & TKOF RWY 16.
RUNWAY 16  RUNWAY 34
Traffic pattern: leftleft
Markings: nonenone
Runway end identifier lights: nono
Obstructions: hill/trees, 1200 ft. from runway, 7:1 slope to clear
HILL 1200' AND 50' HIGH.
road, 1000 ft. from runway, 1:1 slope to clear

Airport Ownership and Management from official FAA records

Ownership: Privately-owned
Owner: SKY HBR PRPTY OWNER ASSOC
11641 BARR RD.
ANCHORAGE, AK 99516
APPROXIMATELY 16 OWNERS.
Manager: GORDON A. LEONARD
11641 BARR RD
ANCHORAGE, AK 99516
Phone 907-345-4896

Airport Operational Statistics

Aircraft operations: avg 125/week *
77% local general aviation
23% transient general aviation
* for 12-month period ending 29 May 1979

Instrument Procedures

There are no published instrument procedures at 9AK5.

Some nearby airports with instrument procedures:

PAMR - Merrill Field Airport (6 nm N)
PANC - Ted Stevens Anchorage International Airport (6 nm NW)
PAED - Elmendorf Air Force Base (8 nm N)
PAFR - Bryant Army Airfield Heliport (10 nm NE)
PAGQ - Big Lake Airport (25 nm N)
 
Loc | Ops | Rwys | IFR | FBO | Links
Com | Nav | Svcs | Stats | Notes

Crowley
 
Area around 9AK5 (Sky Harbor Airport)
 
Road maps at: MapQuest Bing Google
 
Aerial photo
No photo
 
Sectional chart

 
Airport distance calculator
Flying to Sky Harbor Airport? Find the distance to fly.

From to 9AK5

Sunrise and sunset
Times for 06-Jul-2020
 Local
(UTC-8)
 Zulu
(UTC)
Morning civil twilight02:4210:42
Sunrise04:3812:38
Sunset23:3007:30
Evening civil twilight01:2609:26

Current date and time
Zulu (UTC)  06-Jul-2020 08:46:32
Local (UTC-8)  06-Jul-2020 00:46:32
 
METAR
PALH 
6nm NW 
060804Z AUTO 27005KT 10SM SCT020 OVC030 16/12 A3004 RMK AO2 T01560117 TSNO
PAMR 
6nm N 
060838Z 14003KT 10SM BKN015 OVC021 14/11 A3002 RMK AO2 T01440106
PANC 
6nm NW 
060753Z 25003KT 10SM FEW015 BKN022 OVC050 14/11 A3003 RMK AO2 SLP170 T01440111 $
PAED 
8nm N 
060816Z 25006KT 10SM BKN021 OVC055 14/12 A3003 RMK AO2A CIG 020 RWY16 SLP164 $
PAFR 
10nm NE 
060828Z AUTO 21003KT 10SM SCT012 OVC019 13/11 A3000 RMK AO2 CIG 012V019 SLP164
TAF
PANC 
6nm NW 
060537Z 0606/0712 29008KT P6SM FEW025 BKN060 TEMPO 0608/0610 BKN025 FM061000 VRB04KT P6SM BKN025 FM062100 29006KT P6SM FEW025 BKN040
PAED 
8nm N 
060708Z 0607/0708 24006KT 9999 BKN020 QNH3001INS BECMG 0608/0609 VRB06KT 8000 BR BKN009 OVC015 QNH2995INS TEMPO 0611/0616 1600 BR BECMG 0619/0620 VRB06KT 9999 NSW SCT010 BKN020 OVC030 QNH2992INS TX18/0622Z TN13/0614Z
NOTAMs
Click for the latest NOTAMs
NOTAMs are issued by the DoD/FAA and will open in a separate window not controlled by AirNav.

 

 
 

Would you like to see your business listed on this page?

 If your business provides an interesting product or service to pilots, flight crews, aircraft, or users of the Sky Harbor Airport, you should consider listing it here.  To start the listing process, click on the button below
 
Add a business
 

Other Pages about Sky Harbor Airport

Update a link
 
Copyright © AirNav, LLC. All rights reserved. Privacy Policy  Contact